DW4554 Weather Reports


time (UTC)temp
C
wind
direction
speed
KPH
gust
KPH
rain 1hr
cm
rain 24hr
cm
rain mn
cm
humidity
%
barometer
mb
20260901161404 25 295 3.2 8.0 0.00 0.00 0.00 46 1017.6
20260901160904 25 292 4.8 9.7 0.00 0.00 0.00 45 1017.7
20260901160404 25 304 6.4 11.3 0.00 0.00 0.00 45 1017.7
20260901155404 25 330 4.8 11.3 0.00 0.00 0.00 46 1017.7
20260901154904 25 293 4.8 9.7 0.00 0.00 0.00 46 1017.6
20260901154404 25 294 6.4 11.3 0.00 0.00 0.00 46 1017.6
20260901153904 25 289 3.2 9.7 0.00 0.00 0.00 46 1017.6
20260901153404 25 309 3.2 9.7 0.00 0.00 0.00 46 1017.5
20260901152904 25 307 4.8 19.3 0.00 0.00 0.00 46 1017.5
20260901152404 25 296 6.4 11.3 0.00 0.00 0.00 46 1017.5
20260901151904 25 281 3.2 9.7 0.00 0.00 0.00 46 1017.4
20260901151404 25 270 3.2 8.0 0.00 0.00 0.00 46 1017.4
20260901150904 25 287 3.2 9.7 0.00 0.00 0.00 44 1017.4
20260901150404 26 302 4.8 11.3 0.00 0.00 0.00 44 1017.4
20260901145904 26 285 8.0 16.1 0.00 0.00 0.00 44 1017.5
20260901145405 26 294 8.0 16.1 0.00 0.00 0.00 43 1017.5
20260901144904 26 301 8.0 14.5 0.00 0.00 0.00 43 1017.5
20260901144405 26 290 11.3 19.3 0.00 0.00 0.00 42 1017.4
20260901143904 26 262 4.8 12.9 0.00 0.00 0.00 45 1017.4
20260901143404 26 231 3.2 9.7 0.00 0.00 0.00 44 1017.4
20260901142904 26 315 11.3 19.3 0.00 0.00 0.00 43 1017.4
20260901142404 26 290 8.0 19.3 0.00 0.00 0.00 44 1017.4
20260901141904 25 254 3.2 9.7 0.00 0.00 0.00 46 1017.3
20260901140404 26 277 4.8 12.9 0.00 0.00 0.00 45 1017.4
20260901135906 26 288 8.0 12.9 0.00 0.00 0.00 45 1017.4
20260901135404 26 240 6.4 14.5 0.00 0.00 0.00 46 1017.4
20260901134904 26 234 4.8 14.5 0.00 0.00 0.00 44 1017.5
20260901133904 26 287 4.8 16.1 0.00 0.03 0.00 44 1017.5
20260901133404 26 308 11.3 16.1 0.00 0.03 0.00 44 1017.5
20260901132904 26 301 12.9 20.9 0.00 0.03 0.00 46 1017.5
20260901132405 26 275 3.2 16.1 0.00 0.03 0.00 46 1017.5
20260901131905 25 238 4.8 14.5 0.00 0.03 0.00 49 1017.5
20260901131404 25 225 4.8 14.5 0.00 0.03 0.00 51 1017.5
20260901130904 25 232 4.8 16.1 0.00 0.03 0.00 53 1017.6
20260901130405 24 246 8.0 16.1 0.00 0.03 0.00 50 1017.6
20260901125904 24 233 4.8 11.3 0.00 0.03 0.00 52 1017.6
20260901125404 24 291 6.4 11.3 0.00 0.03 0.00 52 1017.6
20260901124904 24 286 9.7 19.3 0.00 0.03 0.00 50 1017.7
20260901124405 24 227 4.8 14.5 0.00 0.03 0.00 52 1017.6
20260901123904 23 327 4.8 14.5 0.00 0.03 0.00 53 1017.7
20260901123404 23 286 6.4 11.3 0.00 0.03 0.00 52 1017.7
20260901122904 23 298 6.4 11.3 0.00 0.03 0.00 53 1017.7
20260901122404 23 295 4.8 12.9 0.00 0.03 0.00 54 1017.7
20260901121904 23 219 3.2 11.3 0.00 0.03 0.00 55 1017.7
20260901121405 23 281 3.2 8.0 0.00 0.03 0.00 54 1017.7
20260901120905 23 320 4.8 12.9 0.00 0.03 0.00 55 1017.7
20260901120405 23 273 6.4 14.5 0.00 0.03 0.00 54 1017.7
20260901115904 23 299 9.7 19.3 0.00 0.03 0.00 54 1017.7
20260901115404 23 247 4.8 11.3 0.00 0.03 0.00 56 1017.6
20260901114904 23 219 1.6 8.0 0.00 0.03 0.00 56 1017.7
20260901114404 23 279 4.8 9.7 0.00 0.03 0.00 56 1017.8
20260901113904 23 229 3.2 9.7 0.00 0.03 0.00 56 1017.9
20260901112904 23 304 6.4 19.3 0.00 0.03 0.00 57 1017.9
20260901112404 22 263 4.8 16.1 0.00 0.03 0.00 58 1017.8
20260901111904 22 238 4.8 11.3 0.00 0.03 0.00 60 1017.9
20260901111404 22 274 3.2 11.3 0.00 0.03 0.00 58 1017.9
20260901105905 22 279 3.2 9.7 0.00 0.03 0.00 60 1017.9
20260901105405 22 218 1.6 4.8 0.00 0.03 0.00 59 1017.9
20260901104404 22 217 1.6 4.8 0.00 0.03 0.00 60 1018.0
20260901103904 22 268 3.2 11.3 0.00 0.03 0.00 59 1018.0
20260901103404 22 310 4.8 11.3 0.00 0.03 0.00 60 1018.0
20260901102904 22 278 1.6 4.8 0.00 0.03 0.00 60 1018.0
20260901102405 22 277 4.8 4.8 0.00 0.03 0.00 60 1018.0
20260901101904 22 294 4.8 9.7 0.00 0.03 0.00 60 1017.9
20260901101404 22 293 4.8 11.3 0.00 0.03 0.00 61 1017.9
20260901100904 22 232 4.8 9.7 0.00 0.03 0.00 64 1018.0
20260901095905 21 267 3.2 12.9 0.00 0.03 0.00 63 1018.0
20260901095404 21 239 6.4 12.9 0.00 0.03 0.00 64 1018.0
20260901094904 21 38 4.8 11.3 0.00 0.03 0.00 63 1018.1
20260901094404 21 233 1.6 11.3 0.00 0.03 0.00 65 1018.0
20260901093904 21 236 3.2 8.0 0.00 0.03 0.00 64 1018.0
20260901093404 21 279 4.8 9.7 0.00 0.03 0.00 63 1018.1
20260901092904 21 283 3.2 9.7 0.00 0.03 0.00 65 1018.0
20260901092404 21 244 3.2 9.7 0.00 0.03 0.00 64 1018.1
20260901091905 21 275 3.2 11.3 0.00 0.03 0.00 63 1018.0
20260901090904 21 287 6.4 12.9 0.00 0.03 0.00 64 1018.0
20260901090404 21 293 6.4 12.9 0.00 0.03 0.00 65 1018.0
20260901085904 21 292 3.2 12.9 0.00 0.03 0.00 64 1018.1
20260901085404 21 220 3.2 8.0 0.00 0.03 0.00 65 1017.9
20260901084904 21 246 6.4 12.9 0.00 0.03 0.00 65 1018.0
20260901084404 21 281 3.2 11.3 0.00 0.03 0.00 66 1018.0
20260901083905 21 294 6.4 12.9 0.00 0.03 0.00 66 1017.9
20260901083404 21 241 4.8 9.7 0.00 0.03 0.00 66 1017.9
20260901082904 21 289 8.0 14.5 0.00 0.03 0.00 67 1017.9
20260901081904 20 308 8.0 14.5 0.00 0.03 0.00 67 1017.9
20260901081404 20 290 6.4 12.9 0.00 0.03 0.00 68 1018.0
20260901080404 20 243 8.0 19.3 0.00 0.03 0.00 69 1017.9
20260901075904 20 235 4.8 19.3 0.00 0.03 0.00 70 1017.8
20260901075404 19 236 1.6 9.7 0.00 0.03 0.00 72 1017.8
20260901074904 19 234 3.2 9.7 0.00 0.03 0.00 74 1017.8
20260901074404 19 234 4.8 12.9 0.00 0.03 0.00 73 1017.7
20260901073905 18 233 8.0 14.5 0.00 0.03 0.00 73 1017.7
20260901072904 18 192 3.2 8.0 0.00 0.03 0.00 76 1017.6
20260901072405 18 188 3.2 11.3 0.00 0.03 0.00 74 1017.6
20260901071904 18 225 8.0 16.1 0.00 0.03 0.00 77 1017.6
20260901071404 18 204 6.4 12.9 0.00 0.03 0.00 78 1017.5
20260901070905 18 215 4.8 12.9 0.00 0.03 0.00 78 1017.4
20260901070404 17 195 4.8 12.9 0.00 0.03 0.00 81 1017.4
20260901065905 17 207 6.4 12.9 0.00 0.03 0.00 81 1017.4
20260901065405 16 208 8.0 16.1 0.00 0.03 0.00 84 1017.3
20260901064905 16 182 1.6 8.0 0.00 0.03 0.00 85 1017.2
20260901064404 16 182 4.8 11.3 0.00 0.03 0.00 88 1017.2
20260901063904 15 192 3.2 4.8 0.00 0.03 0.00 90 1017.1
20260901063404 15 215 4.8 9.7 0.00 0.03 0.00 91 1017.1
20260901062904 15 208 4.8 11.3 0.00 0.03 0.00 92 1017.1
20260901062404 15 178 4.8 8.0 0.00 0.03 0.00 92 1017.1
20260901061904 15 182 3.2 9.7 0.00 0.03 0.00 92 1017.1
20260901061404 14 157 4.8 8.0 0.00 0.03 0.00 92 1017.1
20260901060904 14 122 0.0 0.0 0.00 0.03 0.00 92 1017.0
20260901060404 14 96 0.0 0.0 0.00 0.03 0.00 93 1017.0
20260901055404 13 96 0.0 0.0 0.00 0.03 0.00 92 1016.8
20260901054904 13 96 0.0 0.0 0.00 0.03 0.00 92 1016.8
20260901054405 13 96 0.0 0.0 0.00 0.03 0.00 92 1016.8
20260901051905 13 96 0.0 0.0 0.00 0.03 0.00 92 1016.6
20260901051404 13 96 0.0 0.0 0.00 0.03 0.00 92 1016.6
20260901050905 13 96 0.0 0.0 0.00 0.03 0.00 92 1016.6
20260901050404 13 96 0.0 0.0 0.00 0.03 0.00 92 1016.5
20260901045404 13 96 0.0 0.0 0.00 0.03 0.00 92 1016.5
20260901044904 13 96 0.0 1.6 0.00 0.03 0.00 92 1016.4
20260901044404 13 96 0.0 3.2 0.00 0.03 0.00 92 1016.3
20260901043904 13 96 0.0 1.6 0.00 0.03 0.00 92 1016.3
20260901043404 13 96 0.0 3.2 0.00 0.03 0.00 91 1016.2
20260901042904 13 96 1.6 3.2 0.00 0.03 0.00 91 1016.2
20260901042404 13 96 1.6 3.2 0.00 0.03 0.00 91 1016.1
20260901041404 13 96 0.0 0.0 0.00 0.03 0.00 91 1016.0
20260901040405 13 96 0.0 0.0 0.00 0.03 0.00 91 1015.9
20260901035904 13 96 0.0 0.0 0.00 0.03 0.00 91 1015.8
20260901035404 13 96 0.0 0.0 0.00 0.03 0.00 91 1015.8
20260901034904 13 96 0.0 0.0 0.00 0.03 0.00 91 1015.8
20260901033404 14 96 0.0 0.0 0.00 0.03 0.00 91 1015.5
20260901032904 14 96 0.0 0.0 0.00 0.03 0.00 91 1015.5
20260901032404 14 96 0.0 0.0 0.00 0.03 0.00 91 1015.5
20260901031905 14 96 0.0 0.0 0.00 0.03 0.00 90 1015.5
20260901031404 14 96 0.0 0.0 0.00 0.03 0.00 90 1015.5
20260901030904 15 96 0.0 0.0 0.00 0.03 0.00 91 1015.5
20260901030404 15 96 0.0 0.0 0.00 0.03 0.00 90 1015.5
20260901025404 15 96 0.0 0.0 0.00 0.03 0.00 90 1015.5
20260901024904 15 96 0.0 0.0 0.00 0.03 0.00 90 1015.5
20260901024404 15 96 0.0 0.0 0.00 0.03 0.00 90 1015.5
20260901023904 15 96 0.0 0.0 0.00 0.03 0.00 90 1015.5
20260901023405 15 96 0.0 0.0 0.00 0.03 0.00 90 1015.4
20260901022904 15 96 0.0 0.0 0.00 0.03 0.00 90 1015.3
20260901022404 15 96 0.0 0.0 0.00 0.03 0.00 90 1015.3
20260901021904 15 96 0.0 0.0 0.00 0.03 0.00 90 1015.2
20260901020404 15 96 1.6 4.8 0.00 0.03 0.00 90 1015.2
20260901015904 16 96 0.0 0.0 0.00 0.03 0.00 90 1015.1
20260901015404 16 96 0.0 0.0 0.00 0.03 0.00 90 1015.1
20260901014904 16 96 0.0 0.0 0.00 0.03 0.00 90 1015.1
20260901014404 16 96 0.0 0.0 0.00 0.03 0.00 90 1015.1
20260901013904 16 96 1.6 3.2 0.00 0.03 0.00 90 1015.1
20260901013404 16 96 0.0 3.2 0.00 0.03 0.00 90 1015.1
20260901012904 16 96 3.2 4.8 0.00 0.03 0.00 89 1015.1
20260901012404 16 203 1.6 4.8 0.00 0.03 0.00 89 1015.1
20260901011904 16 213 0.0 0.0 0.00 0.03 0.00 89 1015.0
20260901011404 16 213 0.0 0.0 0.00 0.03 0.00 89 1015.0
20260901010904 16 213 0.0 0.0 0.00 0.03 0.00 89 1015.0
20260901010404 16 213 0.0 0.0 0.00 0.03 0.00 89 1015.0
20260901005905 16 213 0.0 0.0 0.00 0.03 0.00 89 1015.0
20260901005404 16 213 0.0 0.0 0.00 0.03 0.00 89 1015.0
20260901004904 17 213 0.0 0.0 0.00 0.03 0.00 89 1015.0
20260901004404 17 213 0.0 0.0 0.00 0.03 0.00 89 1015.0
20260901003904 17 213 0.0 0.0 0.00 0.03 0.00 89 1015.0
20260901003404 17 213 0.0 0.0 0.00 0.03 0.00 89 1015.1
20260901002904 17 213 0.0 0.0 0.00 0.03 0.00 89 1015.0
20260901002404 17 213 0.0 0.0 0.00 0.03 0.00 89 1015.0
20260901001904 17 213 0.0 0.0 0.00 0.03 0.00 89 1015.0
20260901001404 17 213 0.0 0.0 0.00 0.03 0.00 89 1015.0
20260901000904 17 213 0.0 0.0 0.00 0.03 0.00 89 1015.0
20260901000405 17 213 0.0 0.0 0.00 0.03 0.00 89 1015.0
20260831235904 17 213 0.0 32.2 0.00 0.03 0.00 89 1014.9
20260831235404 17 213 0.0 0.0 0.00 0.03 0.00 89 1014.9
20260831234904 17 213 0.0 0.0 0.00 0.03 0.00 89 1014.9
20260831234404 17 213 0.0 0.0 0.00 0.03 0.00 89 1014.9
20260831233404 17 213 0.0 0.0 0.00 0.03 0.00 89 1015.0
20260831232404 17 213 0.0 0.0 0.00 0.03 0.00 89 1015.1
20260831231904 17 213 0.0 0.0 0.00 0.03 0.00 89 1015.1
20260831231405 17 213 0.0 0.0 0.00 0.03 0.00 89 1015.1
20260831230904 17 213 0.0 0.0 0.00 0.03 0.00 89 1015.1
20260831225905 17 213 0.0 0.0 0.00 0.03 0.00 88 1015.3
20260831225404 17 213 0.0 0.0 0.00 0.03 0.00 88 1015.4
20260831224904 17 213 0.0 0.0 0.00 0.03 0.00 88 1015.5
20260831223904 17 213 0.0 0.0 0.00 0.03 0.00 88 1015.5
20260831222904 18 213 0.0 0.0 0.00 0.03 0.00 88 1015.6
20260831222404 18 213 0.0 0.0 0.00 0.03 0.00 88 1015.6
20260831221904 18 213 0.0 0.0 0.00 0.03 0.00 88 1015.6
20260831221404 18 213 0.0 0.0 0.00 0.03 0.00 87 1015.6
20260831220904 18 213 0.0 0.0 0.00 0.03 0.00 87 1015.6
20260831215404 18 213 0.0 0.0 0.00 0.03 0.03 86 1015.4
20260831214904 18 213 0.0 0.0 0.00 0.03 0.03 86 1015.3
20260831214404 18 213 0.0 0.0 0.00 0.03 0.03 86 1015.2
20260831213904 18 213 0.0 0.0 0.00 0.03 0.03 86 1015.1
20260831213405 18 213 0.0 0.0 0.00 0.03 0.03 86 1014.9
20260831212904 18 213 0.0 0.0 0.00 0.03 0.03 86 1014.9
20260831211904 18 213 0.0 0.0 0.00 0.03 0.03 86 1014.7
20260831211404 18 213 0.0 0.0 0.00 0.03 0.03 86 1014.7
20260831210904 18 213 0.0 0.0 0.00 0.03 0.03 86 1014.7
20260831210405 18 213 0.0 0.0 0.00 0.03 0.03 86 1014.6
20260831205904 18 213 0.0 0.0 0.00 0.03 0.03 85 1014.7
20260831205404 18 213 0.0 0.0 0.00 0.03 0.03 85 1014.7
20260831204904 18 213 0.0 0.0 0.00 0.03 0.03 85 1014.6
20260831203904 19 213 0.0 0.0 0.00 0.03 0.03 85 1014.2
20260831203404 19 213 0.0 0.0 0.00 0.03 0.03 85 1014.0
20260831202904 19 213 0.0 0.0 0.00 0.03 0.03 85 1013.9
20260831202404 19 213 0.0 0.0 0.00 0.03 0.03 84 1013.9
20260831201905 19 213 0.0 0.0 0.00 0.03 0.03 84 1013.9
20260831200904 19 213 0.0 0.0 0.00 0.03 0.03 83 1013.7
20260831200404 20 213 0.0 0.0 0.00 0.03 0.03 83 1013.7
20260831195904 20 213 0.0 0.0 0.00 0.03 0.03 83 1013.7
20260831195404 20 213 0.0 0.0 0.00 0.03 0.03 83 1013.7
20260831194904 20 213 0.0 0.0 0.00 0.03 0.03 83 1013.6
20260831194405 20 213 0.0 0.0 0.00 0.03 0.03 82 1013.4
20260831193904 20 213 0.0 0.0 0.00 0.03 0.03 82 1013.4
20260831193404 20 213 0.0 0.0 0.00 0.03 0.03 81 1013.4
20260831192904 20 213 0.0 0.0 0.00 0.03 0.03 81 1013.3
20260831192404 20 213 0.0 0.0 0.00 0.03 0.03 81 1013.2
20260831191904 20 213 0.0 0.0 0.00 0.03 0.03 80 1013.2
20260831191404 20 213 0.0 0.0 0.00 0.03 0.03 80 1013.1
20260831190404 21 213 0.0 1.6 0.00 0.03 0.03 78 1012.9
20260831185904 21 213 0.0 1.6 0.00 0.03 0.03 78 1012.8
20260831185404 21 213 0.0 1.6 0.00 0.03 0.03 78 1012.8
20260831184904 21 213 0.0 0.0 0.00 0.03 0.03 77 1012.7
20260831184404 21 213 0.0 0.0 0.00 0.03 0.03 76 1012.6
20260831183904 21 213 0.0 1.6 0.00 0.03 0.03 76 1012.6
20260831183404 21 213 0.0 3.2 0.00 0.03 0.03 75 1012.5
20260831182905 22 213 0.0 0.0 0.00 0.03 0.03 75 1012.5
20260831181904 22 213 0.0 0.0 0.00 0.03 0.03 74 1012.6
20260831180905 22 213 0.0 0.0 0.00 0.03 0.03 73 1012.5
20260831180404 22 213 0.0 0.0 0.00 0.03 0.03 73 1012.5
20260831175904 23 213 0.0 0.0 0.00 0.03 0.03 73 1012.5
20260831174904 23 213 0.0 0.0 0.00 0.03 0.03 71 1012.5
20260831174404 23 213 0.0 0.0 0.00 0.03 0.03 70 1012.4
20260831173904 23 213 0.0 0.0 0.00 0.03 0.03 69 1012.3
20260831173405 23 213 0.0 0.0 0.00 0.03 0.03 69 1012.4
20260831172904 24 213 0.0 3.2 0.00 0.03 0.03 68 1012.2
20260831171404 25 213 1.6 3.2 0.00 0.03 0.03 67 1012.2
20260831170904 25 213 1.6 4.8 0.00 0.03 0.03 66 1012.2
20260831170404 25 215 0.0 1.6 0.00 0.03 0.03 66 1012.2
20260831165904 25 215 0.0 0.0 0.00 0.03 0.03 64 1012.3
20260831165404 25 215 0.0 0.0 0.00 0.03 0.03 64 1012.3
20260831164904 26 215 0.0 0.0 0.00 0.03 0.03 63 1012.2
20260831164404 26 215 0.0 0.0 0.00 0.03 0.03 62 1012.2
20260831163904 26 215 0.0 0.0 0.00 0.03 0.03 62 1012.2
20260831163404 26 215 0.0 0.0 0.00 0.03 0.03 62 1012.3
20260831162404 27 215 0.0 0.0 0.00 0.03 0.03 59 1012.2
20260831161904 27 215 0.0 0.0 0.00 0.03 0.03 58 1012.2